Location: Blue Mountain Vista Observatory
(40.6992°N, 75.9422°W)
Time: 04:11:20
(UTC-04:00)

Amateur Radio Satellites - All Passes

Search period start: 25 July 2016 03:41
Search period end: 26 July 2016 03:41
Location: Blue Mountain Vista Observatory, 40.6992°N, 75.9422°W

Satellite Date Start Highest point End Downlink Frequencies (MHz)
Time Altitude Azimuth
DANDE 25 Jul 03:45:09 03:47:39 13° 91° (E) 03:49:55 436.750
CUSAT 1 25 Jul 03:45:48 03:49:31 25° 97° (E) 03:52:34 437.405
PCSat 25 Jul 03:49:40 03:52:46 15° 41° (NE) 03:55:51 145.827
Gurwin Techsat 1B 25 Jul 03:52:50 03:57:54 45° 290° (WNW) 04:02:56 435.225
BEESAT 3 25 Jul 03:55:43 03:59:26 37° 52° (NE) 04:03:07 437.485
Cosmos 2499 25 Jul 03:56:34 04:04:32 80° 265° (W) 04:11:51 435.465 / 435.565
BEESAT 2 25 Jul 03:56:55 04:00:07 23° 47° (NE) 04:03:19 435.950
KKS-1 25 Jul 04:01:07 04:05:31 75° 75° (ENE) 04:09:59 437.445
ISS 25 Jul 04:07:49 04:10:44 29° 26° (NNE) 04:13:38 145.825
MOZHAYETS 4 25 Jul 04:16:46 04:21:24 74° 257° (WSW) 04:26:03
ITAMSAT 1 25 Jul 04:21:59 04:27:10 72° 286° (WNW) 04:32:19 435.822/435.867
STARS 25 Jul 04:46:52 04:51:13 70° 258° (WSW) 04:55:38 437.465
AO-7 25 Jul 05:00:32 05:08:57 80° 106° (ESE) 05:17:17 29.400- 29.500
HORYU 2 25 Jul 05:17:12 05:20:48 23° 95° (E) 05:24:22 437.375
GONETS M04 25 Jul 05:23:29 05:28:56 18° 283° (WNW) 05:34:24
DANDE 25 Jul 05:24:13 05:30:19 70° 280° (W) 05:34:51 436.750
CUSAT 1 25 Jul 05:28:20 05:31:25 19° 283° (WNW) 05:34:02 437.405
CUBESAT XI-V 25 Jul 05:29:18 05:33:55 78° 75° (ENE) 05:38:32 437.345
PCSat 25 Jul 05:31:34 05:37:01 83° 61° (ENE) 05:42:26 145.827
BEESAT 3 25 Jul 05:34:02 05:36:50 19° 249° (WSW) 05:39:38 437.485
BEESAT 2 25 Jul 05:34:23 05:38:02 34° 245° (WSW) 05:41:39 435.950
AIST 2 25 Jul 05:36:48 05:39:17 15° 42° (NE) 05:41:46 435.215
ISS 25 Jul 05:44:10 05:47:12 35° 223° (SW) 05:50:12 145.825
Cosmos 2499 25 Jul 05:53:02 05:56:05 13° 285° (WNW) 05:59:03 435.465 / 435.565
NOAA 18 25 Jul 06:00:19 06:01:55 11° 89° (E) 06:03:31 137.9125
STRAND 1 25 Jul 06:01:17 06:03:36 13° 60° (ENE) 06:05:55 437.568
NOAA 15 25 Jul 06:11:35 06:15:24 20° 93° (E) 06:19:14 137.62
BRITE-PL 25 Jul 06:22:36 06:26:55 33° 97° (E) 06:31:31 437.365/2234.400
RS-15 25 Jul 06:33:42 06:43:42 38° 105° (ESE) 06:54:10 29.354- 29.394
LilacSat-2 25 Jul 06:37:39 06:40:43 22° 95° (E) 06:43:46 437.200
HORYU 2 25 Jul 06:53:23 06:57:22 32° 291° (WNW) 07:01:19 437.375
AO-7 25 Jul 06:54:31 07:00:50 25° 306° (NW) 07:07:07 29.400- 29.500
Cubesat XI-IV 25 Jul 06:57:45 07:02:49 41° 98° (E) 07:07:48 437.490
AIST 2 25 Jul 07:14:03 07:18:12 67° 240° (WSW) 07:22:20 435.215
O/OREOS (USA 219) 25 Jul 07:15:45 07:20:17 70° 67° (ENE) 07:24:48 437.305
PCSat 25 Jul 07:17:22 07:19:38 13° 258° (WSW) 07:21:54 145.827
CUTE-I 25 Jul 07:22:02 07:27:23 70° 102° (ESE) 07:32:41 437.470
STRAND 1 25 Jul 07:36:54 07:42:03 82° 256° (WSW) 07:47:15 437.568
GOMX 1 25 Jul 07:36:58 07:41:59 85° 103° (ESE) 07:47:18 467.674
NOAA 18 25 Jul 07:37:41 07:43:17 89° 286° (WNW) 07:48:49 137.9125
DOVE 4 25 Jul 07:42:18 07:47:13 46° 98° (E) 07:52:17 437.250
NOAA 15 25 Jul 07:50:23 07:55:27 49° 289° (WNW) 08:00:29 137.62
PRISM 25 Jul 07:53:57 07:56:45 18° 66° (ENE) 07:59:32 437.425
BRITE-PL 25 Jul 08:01:19 08:05:17 27° 291° (WNW) 08:09:30 437.365/2234.400
LilacSat-2 25 Jul 08:11:46 08:14:58 25° 290° (WNW) 08:18:08 437.200
CINEMA 3 25 Jul 08:11:55 08:16:12 28° 94° (E) 08:20:27 145.822/145.860
YUBILEINY 25 Jul 08:30:49 08:34:23 13° 74° (ENE) 08:37:58 435.215
CANX-2 25 Jul 08:33:29 08:37:25 37° 98° (E) 08:41:18 2200.000
Cubesat XI-IV 25 Jul 08:38:17 08:42:39 26° 295° (WNW) 08:46:59 437.490
AAUSAT CUBESAT 2 25 Jul 08:43:25 08:45:55 16° 92° (E) 08:48:26 437.432
RS-15 25 Jul 08:43:59 08:55:24 66° 308° (NW) 09:07:31 29.354- 29.394
CUTE 1.7 + AOD 2 25 Jul 08:47:17 08:51:21 46° 99° (E) 08:55:23 437.475
Cosmos 2491 25 Jul 08:52:28 09:00:56 50° 76° (ENE) 09:09:22 435.465 / 435.565
O/OREOS (USA 219) 25 Jul 08:58:02 08:59:02 11° 263° (W) 09:00:02 437.305
SO-50 25 Jul 08:58:35 09:03:25 65° 119° (ESE) 09:08:14 436.795
HO-68 25 Jul 09:00:01 09:07:10 63° 103° (ESE) 09:14:16 435.675
CUTE-I 25 Jul 09:03:38 09:06:49 16° 299° (WNW) 09:10:00 437.470
GOMX 1 25 Jul 09:17:26 09:19:27 12° 298° (WNW) 09:21:30 467.674
UWE-3 25 Jul 09:17:56 09:21:47 25° 94° (E) 09:25:32 435.000/436.395/437.385
NOAA 18 25 Jul 09:20:36 09:23:07 13° 303° (WNW) 09:25:37 137.9125
DOVE 4 25 Jul 09:20:42 09:24:36 22° 294° (WNW) 09:28:34 437.250
ZACube-1 25 Jul 09:24:15 09:27:28 19° 92° (E) 09:30:38 437.345
FUNcube-1 25 Jul 09:24:46 09:27:50 18° 92° (E) 09:30:50 145.935
PRISM 25 Jul 09:28:02 09:31:48 35° 262° (W) 09:35:34 437.425
SEEDS 25 Jul 09:30:43 09:34:54 77° 283° (WNW) 09:39:02 437.485
CUBEBUG 2 25 Jul 09:34:32 09:39:14 57° 100° (E) 09:43:47 437.445
TIGRISAT 25 Jul 09:37:32 09:41:00 21° 66° (ENE) 09:44:32 435.000
Cosmos 2504 25 Jul 09:45:04 09:49:02 14° 75° (ENE) 09:52:58 435.465 / 435.565
COMPASS 1 25 Jul 09:46:52 09:51:00 73° 284° (WNW) 09:55:06 437.405
CINEMA 3 25 Jul 09:48:48 09:53:18 34° 290° (WNW) 09:57:47 145.822/145.860
UNISAT 6 25 Jul 09:52:25 09:56:28 32° 69° (ENE) 10:00:37 437.425
Oscar 11 25 Jul 10:09:30 10:13:46 60° 100° (E) 10:18:01 145.826/435.025
CANX-2 25 Jul 10:10:03 10:13:00 19° 293° (WNW) 10:15:54 2200.000
AAUSAT CUBESAT 2 25 Jul 10:17:44 10:21:35 40° 288° (WNW) 10:25:25 437.432
YUBILEINY 25 Jul 10:20:47 10:29:30 74° 94° (E) 10:38:19 435.215
CUTE 1.7 + AOD 2 25 Jul 10:24:21 10:26:48 15° 295° (WNW) 10:29:15 437.475
M-CUBED/EXP-1 PRIME 25 Jul 10:25:59 10:30:01 28° 100° (E) 10:34:02 437.505
POPSAT HIP 1 25 Jul 10:26:55 10:27:55 11° 62° (ENE) 10:28:56 437.405
ANTELSAT 25 Jul 10:30:20 10:34:56 78° 76° (ENE) 10:39:39 437.575/2403.000
SO-50 25 Jul 10:40:46 10:44:20 20° 317° (NW) 10:47:53 436.795
QB50P2 25 Jul 10:45:05 10:48:02 19° 66° (ENE) 10:51:01 145.880/145.840
POLYITAN 1 25 Jul 10:47:40 10:50:40 19° 66° (ENE) 10:53:42 437.675
HO-68 25 Jul 10:48:37 10:54:21 27° 301° (WNW) 11:00:04 435.675
Cosmos 2491 25 Jul 10:49:48 10:57:26 35° 275° (W) 11:05:05 435.465 / 435.565
AUBIESAT-1 25 Jul 10:53:47 10:58:14 44° 103° (ESE) 11:02:39 437.475
UWE-3 25 Jul 10:54:09 10:58:14 31° 291° (WNW) 11:02:11 435.000/436.395/437.385
HUMSAT D 25 Jul 10:57:57 11:01:58 42° 98° (E) 11:05:54 437.325/437.525
DELFI C3 25 Jul 10:59:12 11:03:10 82° 281° (W) 11:07:05 145.870
ZACube-1 25 Jul 10:59:41 11:03:55 39° 289° (WNW) 11:08:02 437.345
FUNcube-1 25 Jul 11:00:00 11:04:15 41° 288° (WNW) 11:08:23 145.935
RS-15 25 Jul 11:01:22 11:10:55 27° 338° (NNW) 11:20:48 29.354- 29.394
JAS-2 25 Jul 11:08:13 11:11:14 15° 61° (ENE) 11:14:09 435.910
CUBEBUG 2 25 Jul 11:12:32 11:15:19 16° 297° (WNW) 11:18:06 437.445
TIGRISAT 25 Jul 11:13:07 11:17:24 39° 262° (W) 11:21:48 435.000
UNISAT 6 25 Jul 11:29:21 11:33:10 26° 265° (W) 11:37:04 437.425
NANOSAT C BR1 25 Jul 11:31:38 11:35:44 53° 73° (ENE) 11:39:53 145.865
Cosmos 2504 25 Jul 11:32:02 11:40:49 74° 93° (E) 11:49:38 435.465 / 435.565
CUBEBUG 1 25 Jul 11:34:00 11:35:21 11° 90° (E) 11:36:43 437.445
DUCHIFAT 1 25 Jul 11:37:00 11:41:07 57° 74° (ENE) 11:45:18 145.980
Oscar 11 25 Jul 11:47:28 11:49:23 13° 297° (WNW) 11:51:18 145.826/435.025
QB50P1 25 Jul 11:52:37 11:56:51 83° 258° (WSW) 12:01:07 145.935-145.965
POPSAT HIP 1 25 Jul 11:58:52 12:03:05 72° 259° (WSW) 12:07:22 437.405
M-CUBED/EXP-1 PRIME 25 Jul 12:00:18 12:04:28 33° 295° (WNW) 12:08:39 437.505
BUGSAT 1 25 Jul 12:00:58 12:04:51 45° 72° (ENE) 12:08:48 437.445
AISAT 25 Jul 12:09:27 12:13:12 26° 96° (E) 12:16:56 437.250
ANTELSAT 25 Jul 12:12:05 12:12:11 10° 272° (W) 12:12:18 437.575/2403.000
DX 1 25 Jul 12:17:13 12:20:35 21° 95° (E) 12:23:56 434.975-435.025
QB50P2 25 Jul 12:19:35 12:23:33 38° 262° (W) 12:27:33 145.880/145.840
YUBILEINY 25 Jul 12:20:26 12:27:11 24° 294° (WNW) 12:34:02 435.215
POLYITAN 1 25 Jul 12:22:15 12:26:11 37° 262° (W) 12:30:11 437.675
AUBIESAT-1 25 Jul 12:28:53 12:32:21 21° 299° (WNW) 12:35:51 437.475
Oscar 19 25 Jul 12:32:22 12:36:03 21° 64° (ENE) 12:39:46 437.125/150
HUMSAT D 25 Jul 12:34:35 12:37:14 17° 295° (WNW) 12:39:52 437.325/437.525
ESTCUBE 1 25 Jul 12:34:48 12:39:20 83° 105° (ESE) 12:43:48 437.505/2401.250
UKube-1 25 Jul 12:34:50 12:38:29 26° 96° (E) 12:42:06 .
JAS-2 25 Jul 12:49:32 12:55:47 82° 256° (WSW) 13:01:23 435.910
50 SAT 25 Jul 12:57:09 13:00:46 80° 284° (WNW) 13:04:20 437.505
VELOX 1 25 Jul 13:00:41 13:05:09 90° 346° (NNW) 13:09:36 145.980
CUBEBUG 1 25 Jul 13:07:41 13:12:02 64° 286° (WNW) 13:16:24 437.445
NANOSAT C BR1 25 Jul 13:09:54 13:11:47 13° 269° (W) 13:13:41 145.865
SPROUT 25 Jul 13:11:57 13:16:13 57° 100° (E) 13:20:28 437.525
DUCHIFAT 1 25 Jul 13:15:38 13:17:10 12° 270° (W) 13:18:43 145.980
RS-15 25 Jul 13:19:59 13:29:15 24° 14° (NNE) 13:38:37 29.354- 29.394
Cosmos 2504 25 Jul 13:27:58 13:34:59 26° 293° (WNW) 13:42:04 435.465 / 435.565
Gurwin Techsat 1B 25 Jul 13:34:13 13:38:59 35° 68° (ENE) 13:43:46 435.225
BUGSAT 1 25 Jul 13:38:21 13:40:29 14° 269° (W) 13:42:38 437.445
AISAT 25 Jul 13:45:48 13:49:37 29° 291° (WNW) 13:53:27 437.250
AIST 1 25 Jul 13:48:03 13:52:10 53° 94° (E) 13:56:20
DX 1 25 Jul 13:52:53 13:56:49 33° 291° (WNW) 14:00:45 434.975-435.025
ITAMSAT 1 25 Jul 14:01:48 14:05:43 22° 64° (ENE) 14:09:38 435.822/435.867
AO-7 25 Jul 14:09:00 14:15:19 25° 53° (NE) 14:21:36 29.400- 29.500
Oscar 19 25 Jul 14:10:04 14:15:00 49° 260° (W) 14:19:59 437.125/150
UKube-1 25 Jul 14:10:47 14:14:27 27° 292° (WNW) 14:18:06 .
ESTCUBE 1 25 Jul 14:14:55 14:15:26 10° 300° (WNW) 14:15:58 437.505/2401.250
TISAT 1 25 Jul 14:15:07 14:19:23 67° 102° (ESE) 14:23:36 437.305
GONETS M04 25 Jul 14:31:56 14:37:41 20° 79° (ENE) 14:43:28
AO-85 25 Jul 14:32:35 14:37:54 61° 119° (ESE) 14:43:01 145.980
Cosmos 2499 25 Jul 14:42:12 14:47:18 17° 77° (ENE) 14:52:20 435.465 / 435.565
SPROUT 25 Jul 14:49:33 14:51:41 14° 297° (WNW) 14:53:48 437.525
SWISSCUBE 25 Jul 14:52:05 14:56:23 33° 97° (E) 15:00:39 437.505
BEESAT 25 Jul 15:13:28 15:18:07 50° 100° (E) 15:22:43 436.000
Gurwin Techsat 1B 25 Jul 15:14:21 15:18:56 29° 264° (W) 15:23:33 435.225
AIST 1 25 Jul 15:28:18 15:30:07 12° 291° (WNW) 15:31:57
RS-15 25 Jul 15:33:46 15:45:45 51° 46° (NE) 15:57:35 29.354- 29.394
ITUPSAT 1 25 Jul 15:35:08 15:39:56 82° 103° (ESE) 15:44:41 437.325
ITAMSAT 1 25 Jul 15:39:48 15:44:50 48° 260° (W) 15:49:54 435.822/435.867
TISAT 1 25 Jul 15:53:02 15:54:27 11° 298° (WNW) 15:55:52 437.305
KKS-1 25 Jul 15:53:44 15:56:16 15° 92° (E) 15:58:48 437.445
AO-7 25 Jul 15:58:48 16:07:11 81° 253° (WSW) 16:15:37 29.400- 29.500
CUSAT 1 25 Jul 15:59:28 16:02:02 27° 263° (W) 16:05:04 437.405
DANDE 25 Jul 16:03:26 16:06:00 68° 80° (E) 16:08:46 436.750
MOZHAYETS 4 25 Jul 16:12:34 16:16:25 26° 95° (E) 16:20:13
AO-85 25 Jul 16:14:34 16:18:46 23° 315° (NW) 16:22:47 145.980
HORYU 2 25 Jul 16:15:06 16:18:32 22° 66° (ENE) 16:22:00 437.375
GONETS M04 25 Jul 16:24:42 16:33:23 81° 278° (W) 16:42:09
SWISSCUBE 25 Jul 16:30:08 16:34:01 26° 293° (WNW) 16:37:54 437.505
Cosmos 2499 25 Jul 16:30:13 16:39:08 84° 95° (E) 16:47:54 435.465 / 435.565
STARS 25 Jul 16:37:09 16:40:35 21° 94° (E) 16:43:59 437.465
BEESAT 25 Jul 16:52:18 16:55:30 18° 296° (WNW) 16:58:41 436.000
CUTE-I 25 Jul 17:06:33 17:09:31 15° 60° (ENE) 17:12:30 437.470
ITUPSAT 1 25 Jul 17:15:27 17:17:03 12° 300° (WNW) 17:18:39 437.325
LilacSat-2 25 Jul 17:20:59 17:22:27 12° 64° (ENE) 17:23:55 437.200
NOAA 18 25 Jul 17:24:47 17:29:04 24° 63° (ENE) 17:33:22 137.9125
CUBESAT XI-V 25 Jul 17:26:57 17:30:17 19° 93° (E) 17:33:36 437.345
KKS-1 25 Jul 17:28:46 17:33:07 51° 288° (WNW) 17:37:28 437.445
SO-50 25 Jul 17:30:34 17:35:06 51° 53° (NE) 17:39:29 436.795
NOAA 15 25 Jul 17:31:08 17:35:45 32° 67° (ENE) 17:40:21 137.62
BRITE-PL 25 Jul 17:34:10 17:37:50 31° 70° (ENE) 17:41:30 437.365/2234.400
PHONESAT 2.4 25 Jul 17:34:50 17:36:55 17° 151° (SSE) 17:39:01 2401.200-2431.200
RS-15 25 Jul 17:46:37 17:58:26 55° 249° (WSW) 18:10:03 29.354- 29.394
MOZHAYETS 4 25 Jul 17:49:34 17:53:32 30° 291° (WNW) 17:57:29
HORYU 2 25 Jul 17:50:46 17:54:52 35° 262° (W) 17:59:01 437.375
AO-7 25 Jul 17:56:41 18:01:06 15° 271° (W) 18:05:33 29.400- 29.500
STARS 25 Jul 18:12:58 18:17:00 34° 290° (WNW) 18:21:00 437.465
Cubesat XI-IV 25 Jul 18:19:17 18:24:36 66° 73° (ENE) 18:29:57 437.490
GONETS M04 25 Jul 18:26:39 18:31:43 16° 300° (WNW) 18:36:48
Cosmos 2499 25 Jul 18:26:50 18:33:16 22° 295° (WNW) 18:39:38 435.465 / 435.565
CUTE-I 25 Jul 18:43:32 18:48:54 76° 257° (WSW) 18:54:18 437.470
GOMX 1 25 Jul 18:45:26 18:49:34 85° 77° (ENE) 18:53:52 467.674
DOVE 4 25 Jul 18:48:00 18:51:55 39° 71° (ENE) 18:56:05 437.250
LilacSat-2 25 Jul 18:52:31 18:56:16 52° 260° (W) 19:00:06 437.200
CUBESAT XI-V 25 Jul 19:03:30 19:07:48 40° 289° (WNW) 19:12:06 437.345
NOAA 18 25 Jul 19:04:02 19:09:22 49° 260° (W) 19:14:46 137.9125
PHONESAT 2.4 25 Jul 19:10:02 19:13:04 59° 166° (SSE) 19:16:07 2401.200-2431.200
NOAA 15 25 Jul 19:10:50 19:15:27 31° 263° (W) 19:20:06 137.62
SO-50 25 Jul 19:12:09 19:15:08 17° 251° (WSW) 19:18:03 436.795
BRITE-PL 25 Jul 19:13:23 19:16:25 19° 266° (W) 19:19:27 437.365/2234.400
CINEMA 3 25 Jul 19:13:37 19:17:08 23° 66° (ENE) 19:20:45 145.822/145.860
BEESAT 3 25 Jul 19:22:56 19:26:50 75° 120° (ESE) 19:30:46 437.485
BEESAT 2 25 Jul 19:25:34 19:29:16 40° 116° (ESE) 19:33:00 435.950
CANX-2 25 Jul 19:26:03 19:29:38 26° 69° (ENE) 19:33:12 2200.000
HO-68 25 Jul 19:28:07 19:34:51 45° 66° (ENE) 19:41:37 435.675
AAUSAT CUBESAT 2 25 Jul 19:34:59 19:36:11 11° 63° (ENE) 19:37:22 437.432
CUTE 1.7 + AOD 2 25 Jul 19:39:35 19:43:23 32° 71° (ENE) 19:47:11 437.475
STRAND 1 25 Jul 19:48:01 19:52:40 34° 97° (E) 19:57:17 437.568
Cubesat XI-IV 25 Jul 20:01:59 20:05:07 16° 269° (W) 20:08:16 437.490
PCSat 25 Jul 20:12:33 20:17:59 82° 116° (ESE) 20:23:25 145.827
UWE-3 25 Jul 20:14:45 20:18:09 21° 66° (ENE) 20:21:37 435.000/436.395/437.385
ZACube-1 25 Jul 20:20:12 20:22:57 16° 64° (ENE) 20:25:42 437.345
FUNcube-1 25 Jul 20:20:29 20:23:03 15° 63° (ENE) 20:25:37 145.935
SEEDS 25 Jul 20:21:38 20:25:50 68° 75° (ENE) 20:30:03 437.485
DOVE 4 25 Jul 20:27:01 20:29:52 17° 269° (W) 20:32:48 437.250
YUBILEINY 25 Jul 20:31:44 20:39:44 36° 71° (ENE) 20:47:39 435.215
CUBEBUG 2 25 Jul 20:31:55 20:36:15 45° 72° (ENE) 20:40:43 437.445
COMPASS 1 25 Jul 20:36:49 20:40:59 70° 75° (ENE) 20:45:09 437.405
PHONESAT 2.4 25 Jul 20:46:28 20:49:33 88° 172° (S) 20:52:38 2401.200-2431.200
CINEMA 3 25 Jul 20:49:56 20:54:01 35° 264° (W) 20:58:18 145.822/145.860
CANX-2 25 Jul 21:01:48 21:05:24 26° 265° (W) 21:09:01 2200.000
BEESAT 3 25 Jul 21:03:09 21:05:00 13° 319° (NW) 21:06:52 437.485
Oscar 11 25 Jul 21:03:41 21:07:48 44° 72° (ENE) 21:11:57 145.826/435.025
BEESAT 2 25 Jul 21:04:18 21:07:15 20° 314° (NW) 21:10:15 435.950
AAUSAT CUBESAT 2 25 Jul 21:06:58 21:11:06 66° 259° (W) 21:15:15 437.432
PRISM 25 Jul 21:09:41 21:13:15 28° 97° (E) 21:16:48 437.425
AIST 2 25 Jul 21:11:39 21:15:03 26° 113° (ESE) 21:18:30 435.215
M-CUBED/EXP-1 PRIME 25 Jul 21:12:33 21:15:44 27° 63° (ENE) 21:19:10 437.505
CUTE 1.7 + AOD 2 25 Jul 21:15:58 21:19:15 21° 266° (W) 21:22:33 437.475
HO-68 25 Jul 21:16:14 21:22:39 35° 263° (W) 21:29:07 435.675
Cosmos 2504 25 Jul 21:26:49 21:33:22 25° 66° (ENE) 21:39:32 435.465 / 435.565
STRAND 1 25 Jul 21:27:23 21:31:43 28° 294° (WNW) 21:36:00 437.568
O/OREOS (USA 219) 25 Jul 21:27:33 21:32:01 88° 106° (ESE) 21:36:30 437.305
AUBIESAT-1 25 Jul 21:39:41 21:43:17 45° 67° (ENE) 21:47:11 437.475
DELFI C3 25 Jul 21:44:26 21:48:19 52° 74° (ENE) 21:52:11 145.870
HUMSAT D 25 Jul 21:48:48 21:52:31 29° 69° (ENE) 21:56:15 437.325/437.525
UWE-3 25 Jul 21:50:04 21:54:19 39° 263° (W) 21:58:41 435.000/436.395/437.385
Cosmos 2491 25 Jul 21:52:58 22:01:25 58° 91° (E) 22:09:54 435.465 / 435.565
ZACube-1 25 Jul 21:54:21 21:58:45 53° 260° (W) 22:03:15 437.345
FUNcube-1 25 Jul 21:54:21 21:58:46 57° 260° (W) 22:03:18 145.935
PCSat 25 Jul 21:58:28 22:02:03 18° 317° (NW) 22:05:39 145.827
CUBEBUG 2 25 Jul 22:10:00 22:13:06 18° 269° (W) 22:16:15 437.445
ISS 25 Jul 22:22:50 22:26:05 78° 142° (SE) 22:29:21 145.825
PHONESAT 2.4 25 Jul 22:23:02 22:25:57 41° 199° (SSW) 22:28:53 2401.200-2431.200
ANTELSAT 25 Jul 22:23:37 22:26:41 17° 92° (E) 22:29:41 437.575/2403.000
YUBILEINY 25 Jul 22:28:20 22:36:44 50° 271° (W) 22:45:04 435.215
Oscar 11 25 Jul 22:41:26 22:44:08 16° 268° (W) 22:46:52 145.826/435.025
PRISM 25 Jul 22:45:13 22:48:25 22° 292° (WNW) 22:51:36 437.425
M-CUBED/EXP-1 PRIME 25 Jul 22:47:24 22:50:17 21° 262° (W) 22:53:21 437.505
AIST 2 25 Jul 22:49:48 22:53:26 30° 310° (NW) 22:57:07 435.215
TIGRISAT 25 Jul 23:04:45 23:09:12 44° 98° (E) 23:13:33 435.000
AO-85 25 Jul 23:05:27 23:09:41 42° 52° (NE) 23:13:35 145.980
AISAT 25 Jul 23:06:50 23:10:15 23° 67° (ENE) 23:13:42 437.250
O/OREOS (USA 219) 25 Jul 23:11:06 23:12:05 11° 310° (NW) 23:13:05 437.305
DX 1 25 Jul 23:12:54 23:15:55 19° 65° (ENE) 23:18:56 434.975-435.025
AUBIESAT-1 25 Jul 23:16:19 23:18:06 13° 265° (W) 23:19:55 437.475
Cosmos 2504 25 Jul 23:19:22 23:27:27 64° 268° (W) 23:34:56 435.465 / 435.565
UNISAT 6 25 Jul 23:20:26 23:25:06 71° 102° (ESE) 23:29:37 437.425
DELFI C3 25 Jul 23:22:13 23:23:28 11° 269° (W) 23:24:43 145.870
HUMSAT D 25 Jul 23:24:37 23:28:07 24° 265° (W) 23:31:38 437.325/437.525
UKube-1 25 Jul 23:29:22 23:32:41 22° 67° (ENE) 23:36:00 .
ESTCUBE 1 25 Jul 23:33:42 23:38:11 72° 75° (ENE) 23:42:40 437.505/2401.250
50 SAT 25 Jul 23:34:12 23:37:39 39° 73° (ENE) 23:41:06 437.505
QB50P1 25 Jul 23:38:47 23:41:30 16° 92° (E) 23:44:13 145.935-145.965
POPSAT HIP 1 25 Jul 23:44:48 23:47:52 19° 93° (E) 23:50:53 437.405
Cosmos 2491 25 Jul 23:51:17 23:58:42 31° 291° (WNW) 00:06:11 435.465 / 435.565
AIST 1 25 Jul 23:56:41 23:58:50 13° 70° (ENE) 00:00:59
VELOX 1 25 Jul 23:57:23 00:01:45 76° 75° (ENE) 00:06:10 145.980
ANTELSAT 25 Jul 23:59:10 00:03:38 46° 288° (WNW) 00:07:58 437.575/2403.000
ISS 26 Jul 00:00:20 00:02:50 20° 340° (NNW) 00:05:20 145.825
PHONESAT 2.4 26 Jul 00:01:42 00:01:56 10° 214° (SW) 00:02:11 2401.200-2431.200
CUBEBUG 1 26 Jul 00:02:59 00:07:17 82° 259° (WSW) 00:11:37 437.445
QB50P2 26 Jul 00:04:39 00:08:34 33° 97° (E) 00:12:26 145.880/145.840
SPROUT 26 Jul 00:05:04 00:09:04 41° 72° (ENE) 00:13:06 437.525
POLYITAN 1 26 Jul 00:07:17 00:11:13 34° 97° (E) 00:15:07 437.675
TIGRISAT 26 Jul 00:42:17 00:45:32 19° 295° (WNW) 00:48:43 435.000
AISAT 26 Jul 00:42:38 00:46:33 32° 263° (W) 00:50:31 437.250
AO-85 26 Jul 00:46:52 00:49:42 17° 251° (WSW) 00:52:23 145.980
DX 1 26 Jul 00:47:46 00:51:48 39° 261° (W) 00:55:54 434.975-435.025
NANOSAT C BR1 26 Jul 00:51:44 00:56:01 78° 284° (WNW) 01:00:16 145.865
DUCHIFAT 1 26 Jul 00:56:49 01:01:05 74° 286° (WNW) 01:05:20 145.980
UNISAT 6 26 Jul 00:59:09 01:01:10 13° 298° (WNW) 01:03:09 437.425
UKube-1 26 Jul 01:04:40 01:08:32 32° 263° (W) 01:12:25 .
TISAT 1 26 Jul 01:06:16 01:10:16 46° 73° (ENE) 01:14:19 437.305
ITUPSAT 1 26 Jul 01:07:55 01:09:02 11° 59° (ENE) 01:10:08 437.325
50 SAT 26 Jul 01:09:52 01:11:28 12° 268° (W) 01:13:04 437.505
QB50P1 26 Jul 01:13:25 01:17:28 42° 288° (WNW) 01:21:30 145.935-145.965
ESTCUBE 1 26 Jul 01:15:00 01:15:28 10° 271° (W) 01:15:56 437.505/2401.250
BUGSAT 1 26 Jul 01:17:54 01:22:11 84° 103° (ESE) 01:26:26 437.445
POPSAT HIP 1 26 Jul 01:19:47 01:23:45 36° 289° (WNW) 01:27:41 437.405
AIST 1 26 Jul 01:32:32 01:36:45 51° 266° (W) 01:40:58
ISS 26 Jul 01:38:50 01:40:13 12° 0° (N) 01:41:38 145.825
QB50P2 26 Jul 01:40:54 01:44:09 21° 293° (WNW) 01:47:23 145.880/145.840
SPROUT 26 Jul 01:42:26 01:45:11 17° 267° (W) 01:47:58 437.525
JAS-2 26 Jul 01:43:06 01:48:23 88° 103° (ESE) 01:54:07 435.910
POLYITAN 1 26 Jul 01:43:34 01:46:47 21° 293° (WNW) 01:49:59 437.675
Gurwin Techsat 1B 26 Jul 01:52:10 01:54:44 13° 90° (E) 01:57:17 435.225
SWISSCUBE 26 Jul 01:58:06 02:02:30 38° 70° (ENE) 02:06:55 437.505
BEESAT 26 Jul 02:19:20 02:24:00 56° 72° (ENE) 02:28:41 436.000
Oscar 19 26 Jul 02:21:34 02:26:42 59° 101° (E) 02:31:48 437.125/150
Cosmos 2499 26 Jul 02:23:38 02:30:15 28° 68° (ENE) 02:36:27 435.465 / 435.565
GONETS M04 26 Jul 02:35:21 02:43:54 51° 76° (ENE) 02:52:24
ITUPSAT 1 26 Jul 02:41:17 02:46:06 89° 243° (WSW) 02:50:57 437.325
TISAT 1 26 Jul 02:43:53 02:46:10 14° 268° (W) 02:48:27 437.305
KKS-1 26 Jul 02:52:08 02:54:27 14° 63° (ENE) 02:56:46 437.445
MOZHAYETS 4 26 Jul 03:14:12 03:17:58 25° 68° (ENE) 03:21:44
ISS 26 Jul 03:15:05 03:17:37 20° 21° (NNE) 03:20:09 145.825
PCSat 26 Jul 03:19:40 03:21:37 12° 37° (NE) 03:23:33 145.827
CUSAT 1 26 Jul 03:21:55 03:24:31 16° 95° (E) 03:26:47 437.405
Gurwin Techsat 1B 26 Jul 03:29:53 03:35:12 73° 286° (WNW) 03:40:29 435.225
JAS-2 26 Jul 03:31:00 03:32:51 12° 300° (WNW) 03:34:42 435.910
DANDE 26 Jul 03:32:18 03:33:21 11° 91° (E) 03:34:21 436.750
STARS 26 Jul 03:33:53 03:37:00 19° 65° (ENE) 03:40:07 437.465
